Погода в Любомировке

Россия / Омская область     54°25′56″N   73°34′44″E
темп.,
°C
ветер,
м/с
пор.,
м/с
влажн.,
%
обл.,
%
осадки,
мм/ч
давл.,
гПа
погр.,
м
9 мая, вс
вс900:00+16в3436100 0.0 101749
03:00+15в464099 0.0 101682
06:00+13всв4944100 0.0 1016145
09:00+19в6103485 0.0 1015489
12:00+23в8928100 0.0 10152009
15:00+22в8929100 0.0 10152446
18:00+20в8938100 0.0 10141832
21:00+16всв91443100 0.0 1016822
10 мая, пн
пн1000:00+13в101641100 0.0 1016802
03:00+11в81545100 0.0 1017774
06:00+9всв81551100 0.0 1018755
09:00+10всв101344100 0.0 1020837
12:00+13в91134100 0.0 10201362
15:00+16в9113198 0.0 10201675
18:00+16в7102933 0.0 10201887
21:00+13св612406 0.0 1022390
11 мая, вт
вт1100:00+10ссв35513 0.0 102382
03:00+9ссв48595 0.0 1023147
06:00+8ссв37640 0.0 1024154
09:00+12св56484 0.0 1024743
12:00+15ссв57377 0.0 10242019
15:00+17ссв57305 0.0 10242158
18:00+17ссв67295 0.0 10242077
21:00+14с37430 0.0 1025136
12 мая, ср
ср1200:00+12ссз33490 0.0 102643
03:00+10ссз345357 0.0 102646
06:00+10сз345181 0.0 102681
09:00+16сз463348 0.0 1025475
12:00+21зсз5729100 0.0 10241703
15:00+22сз6725100 0.0 10222644
18:00+21сз7835100 0.0 10212449
21:00+13ссв5879100 1.6 1023566
13 мая, чт
чт1300:00+13ссз377922 2.4 1023474
03:00+10ссз410690 0.0 1023278
06:00+9ссз410675 0.0 1024275
09:00+13с56575 0.0 1025762
12:00+17с56325 0.0 10241492
15:00+19ссз573257 0.0 10221797
18:00+20ссз673529 0.0 10211981
21:00+17зсз335299 0.0 102132